Weather History for Ocala, FL

Change the Weather History Date:

Monday, April 8, 2013

  Actual Average Record
Temperature  
Mean Temperature 70 °F -  
Max Temperature 84 °F 78 °F 89 °F (2006)
Min Temperature 55 °F 54 °F 33 °F (2009)
Cooling Degree Days 4    
Growing Degree Days 20 (Base 50)    
Moisture  
Dew Point 54 °F    
Average Humidity 65    
Maximum Humidity 88    
Minimum Humidity 29    
Precipitation  
Precipitation 0.00 in - - ()
Sea Level Pressure  
Sea Level Pressure 30.11 in    
Wind  
Wind Speed 1 mph (ESE)    
Max Wind Speed 9 mph    
Max Gust Speed -    
Visibility 9 miles    
Events      
Averages and records for this station are not official NWS values.
T = Trace of Precipitation, MM = Missing Value Source: NWS Daily Summary

Daily Weather History Graph

Daily Weather History Graph

Search for Another Location

Airport:

Trip Planner

Search our weather history database for the weather conditions in past years. The results will help you decide how hot, cold, wet, or windy it might be!

Date:

Astronomy

Apr. 08, 2013 Rise Set
Actual Time 7:10 AM EDT 7:51 PM EDT
Civil Twilight 6:46 AM EDT 8:15 PM EDT
Nautical Twilight 6:17 AM EDT 8:43 PM EDT
Astronomical Twilight 5:49 AM EDT 9:12 PM EDT
Moon 5:52 AM EDT (4/8) 6:28 PM EDT (4/8)
Length of Visible Light 13h 29m
Length of Day
12h 41m
Waning Crescent, 3% of the Moon is Illuminated
Apr 8
Waning Crescent
Apr 10
New
Apr 18
First Quarter
Apr 25
Full
May 2
Last Quarter

Hourly Weather History & Observations

Time (EDT) Temp. Dew Point Humidity Pressure Visibility Wind Dir Wind Speed Gust Speed Precip Events Conditions
12:15 AM 62.6 °F 53.6 °F 72% 30.14 in 10.0 mi Calm Calm - N/A   Clear
12:35 AM 60.8 °F 53.6 °F 77% 30.14 in 10.0 mi Calm Calm - N/A   Clear
12:55 AM 60.8 °F 53.6 °F 77% 30.13 in 10.0 mi Calm Calm - N/A   Clear
1:15 AM 60.8 °F 53.6 °F 77% 30.13 in 10.0 mi East 3.5 mph - N/A   Clear
1:35 AM 60.8 °F 53.6 °F 77% 30.13 in 10.0 mi Calm Calm - N/A   Scattered Clouds
1:55 AM 60.8 °F 53.6 °F 77% 30.13 in 10.0 mi Calm Calm - N/A   Scattered Clouds
2:15 AM 60.8 °F 53.6 °F 77% 30.12 in 10.0 mi Calm Calm - N/A   Clear
2:35 AM 59.0 °F 53.6 °F 82% 30.11 in 10.0 mi Calm Calm - N/A   Clear
2:55 AM 57.2 °F 53.6 °F 88% 30.11 in 10.0 mi Calm Calm - N/A   Partly Cloudy
3:15 AM 57.2 °F 53.6 °F 88% 30.11 in 10.0 mi Calm Calm - N/A   Mostly Cloudy
3:35 AM 57.2 °F 53.6 °F 88% 30.10 in 10.0 mi Calm Calm - N/A   Overcast
3:55 AM 57.2 °F 53.6 °F 88% 30.10 in 10.0 mi Calm Calm - N/A   Mostly Cloudy
4:15 AM 57.2 °F 53.6 °F 88% 30.10 in 10.0 mi Calm Calm - N/A   Partly Cloudy
4:35 AM 57.2 °F 51.8 °F 82% 30.09 in 10.0 mi Calm Calm - N/A   Scattered Clouds
4:55 AM 57.2 °F 53.6 °F 88% 30.09 in 10.0 mi Calm Calm - N/A   Mostly Cloudy
5:15 AM 55.4 °F 51.8 °F 88% 30.09 in 10.0 mi Calm Calm - N/A   Partly Cloudy
5:35 AM 55.4 °F 51.8 °F 88% 30.09 in 10.0 mi Calm Calm - N/A   Clear
5:55 AM 55.4 °F 51.8 °F 88% 30.10 in 8.0 mi Calm Calm - N/A   Clear
6:15 AM 55.4 °F 51.8 °F 88% 30.10 in 8.0 mi Calm Calm - N/A   Clear
6:35 AM 55.4 °F 51.8 °F 88% 30.11 in 5.0 mi Calm Calm - N/A   Clear
6:50 AM 55.4 °F 51.8 °F 88% 30.12 in 10.0 mi Calm Calm - N/A   Clear
7:50 AM 55.4 °F 51.8 °F 88% 30.14 in 10.0 mi Calm Calm - N/A   Clear
8:50 AM 64.4 °F 59.0 °F 83% 30.16 in 10.0 mi Calm Calm - N/A   Mostly Cloudy
9:50 AM 75.2 °F 59.0 °F 57% 30.15 in 10.0 mi SSE 5.8 mph - N/A   Scattered Clouds
10:50 AM 77.0 °F 55.4 °F 47% 30.16 in 10.0 mi SE 6.9 mph - N/A   Clear
11:50 AM 80.6 °F 51.8 °F 37% 30.14 in 10.0 mi SE 8.1 mph - N/A   Clear
12:50 PM 80.6 °F 51.8 °F 37% 30.14 in 10.0 mi East 6.9 mph - N/A   Partly Cloudy
1:50 PM 82.4 °F 51.8 °F 35% 30.10 in 10.0 mi Calm Calm - N/A   Clear
2:50 PM 84.2 °F 50.0 °F 30% 30.09 in 3.0 mi Calm Calm - N/A   Smoke
3:12 PM 84.2 °F 48.2 °F 29% 30.08 in 2.0 mi Calm Calm - N/A   Smoke
3:50 PM 84.2 °F 48.2 °F 29% 30.07 in 2.5 mi ENE 8.1 mph - N/A   Smoke
4:00 PM 84.2 °F 50.0 °F 30% 30.07 in 4.0 mi ENE 5.8 mph - N/A   Smoke
4:50 PM 84.2 °F 51.8 °F 33% 30.06 in 5.0 mi East 5.8 mph - N/A   Smoke
5:50 PM 84.2 °F 51.8 °F 33% 30.06 in 10.0 mi SSE 9.2 mph - N/A   Scattered Clouds
6:50 PM 82.4 °F 51.8 °F 35% 30.07 in 10.0 mi SSE 6.9 mph - N/A   Scattered Clouds
7:55 PM 78.8 °F 50.0 °F 36% 30.08 in 10.0 mi Calm Calm - N/A   Clear
8:15 PM 77.0 °F 51.8 °F 41% 30.09 in 10.0 mi East 3.5 mph - N/A   Clear
8:35 PM 75.2 °F 59.0 °F 57% 30.09 in 10.0 mi Calm Calm - N/A   Clear
8:55 PM 75.2 °F 59.0 °F 57% 30.10 in 10.0 mi East 5.8 mph - N/A   Clear
9:15 PM 73.4 °F 59.0 °F 61% 30.11 in 10.0 mi East 5.8 mph - N/A   Clear
9:35 PM 73.4 °F 59.0 °F 61% 30.12 in 10.0 mi ESE 3.5 mph - N/A   Clear
9:55 PM 71.6 °F 59.0 °F 64% 30.13 in 10.0 mi ESE 3.5 mph - N/A   Clear
10:15 PM 71.6 °F 59.0 °F 64% 30.13 in 10.0 mi ESE 3.5 mph - N/A   Clear
10:35 PM 71.6 °F 57.2 °F 60% 30.14 in 10.0 mi Calm Calm - N/A   Clear
10:55 PM 69.8 °F 57.2 °F 64% 30.14 in 10.0 mi SE 4.6 mph - N/A   Clear
11:15 PM 69.8 °F 57.2 °F 64% 30.15 in 10.0 mi Calm Calm - N/A   Clear
11:35 PM 69.8 °F 57.2 °F 64% 30.15 in 10.0 mi Calm Calm - N/A   Clear
11:55 PM 68.0 °F 57.2 °F 68% 30.15 in 10.0 mi Calm Calm - N/A   Clear